Strona główna
METAR-TAF:

METAR-TAF

Lotnisko :

Elsenborn

Bütgenbach, Belgia

Szerokość geograficzna: 50-28N, Długość geograficzna: 006-11E, wysokość: 564 m

Aktualna obserwacja pogody

Raport powstał 49 minut temu, godzina 11:55 UTC
Wiatr 5 kt od zachodnio-południowy zachód
Temperatura 17°C
Wilgotność 55%
Ciśnienie 1007 hPa
Widzialność 10 km lub więcej

METAR: EBLB 031155Z AUTO 25005KT 9999 BKN062/// 17/08 Q1007 BLU

czas: 14:44 (12:44 UTC)


TAF: brakujący

Obserwacja i prognoza pogody dla ponad 4000 lotnisk (raport METAR i TAF).

Dostępne stacje oznaczono żółtymi i czerwonymi punktami na mapie.

Najedź kursorem aby zobaczyć nazwę stacji.

Kliknij aby zobaczyć obserwacje i prognozy pogody.

Aby zmienić mapę: kliknij na zielony przycisk z czarnym krzyżykiem, aby powiększyć; na zielony przycisk z myślnikiem, aby pomniejszyć; na zielone strzałki, aby przejść do map sąsiednich.


METAR-TAF: